Location: Audinghen
(50.8518°N, 1.6129°E)
Time: 00:49:00
(UTC+00:00)

Cosmos 1758 - Pass Details

Date: 07 August 2020
Orbit: 540 x 562 km, 82.5° (Epoch: 25 September)

Event Time Altitude Azimuth Distance (km) Brightness Sun altitude
Exits shadow 03:12:19 12° 200° (SSW) 1,684 5.2 -10.7°
Maximum altitude 03:15:58 65° 282° (WNW) 614 3.4 -10.3°
Drops below altitude 10° 03:19:59 10° 5° (N) 1,839 6.7 -9.8°
Sets 03:22:10 0° 9° (N) 2,734 7.7 -9.6°
